Weather in Invercargill

New Zealand     46°24′46″S   168°21′07″E
В апреле 2022 года жителям России запретили посещать сайт meteo.paraplan.net по решению Генеральной прокуратуры. Аудитория сайта уменьшилась в 10 раз. Владельцы сайта не видят смысла в поддержке погодного сервера в таких условиях. Сайт будет закрыт в октябре.
temp.,
°C
wind,
m/s
gust,
m/s
humid.,
%
clouds,
%
prec.,
mm/h
press.,
hPa
HPBL,
m
30 september, fri
fri3001:00+7sw35504 0.0 10241092
04:00+7wsw355635 0.0 10241037
07:00+7s456491 0.1 1025841
10:00+8sse345354 0.0 10271144
13:00+9se445057 0.1 10271514
16:00+9sse43554 0.0 1026938
19:00+8se55595 0.0 1026637
22:00+6ese35664 0.0 1027459
1 october, sat
sat101:00+5e23714 0.0 1026315
04:00+3nne22812 0.0 1024121
07:00+2n348714 0.0 1023142
10:00+5nnw22750 0.0 1023225
13:00+7w33680 0.0 1021453
16:00+10w55613 0.0 1019716
19:00+10wsw45634 0.0 1018870
22:00+8sw23661 0.0 1019655
2 october, sun
sun201:00+6nne227732 0.0 1018200
04:00+5nne448791 0.0 1016132
07:00+5n458569 0.0 1015143
10:00+7n45745 0.0 1014249
13:00+11wnw2257100 0.0 1012494
16:00+11wsw44638 0.0 1010319
19:00+11w56711 0.0 1008370
22:00+10w677566 0.0 1008820
3 october, mon
mon301:00+10w796617 0.0 10071155
04:00+10wnw9127551 0.0 1005968
07:00+9wnw11167938 0.1 10041241
10:00+10wsw111578100 0.9 10061386
13:00+10wsw10125792 0.9 10081819
16:00+10wsw9115457 0.0 10091794
19:00+9wsw9105537 0.1 10091787
22:00+9w8105899 0.0 10101611
4 october, tue
tue401:00+9wnw111366100 0.1 10091588
04:00+9wnw121670100 0.3 10081603
07:00+9wnw121773100 1.0 10081639
10:00+9wnw13188267 0.9 10071572
13:00+10wnw142081100 2.0 10061859
16:00+9wsw141971100 3.6 10051783
19:00+8wsw13176077 3.7 10062183
22:00+6wsw111483100 1.3 10081385